map of BQS home
Great Circle Mapper logo
BQS - Airport
Location
City:  Blagoveschensk, Amur, Russian Federation (Russia)
Name:Ignatyevo
ICAO / IATA:UHBB / BQS

Details
Type:Airport (Aerodrome, Airfield)
Use:Public/Civil
Latitude:5025'31"N (50.425394)
Longitude:12724'45"E (127.412478)
Datum:WGS 1984
Elevation:638 ft (194 m)
Runways:1
Longest:9256 × 148 ft (2821 × 45 m), paved

Time
Time Zone:UTC+9 (DST+10)

Weather
METAR:UHBB 240900Z VRB01MPS 6000 FEW033 BKN100 04/M01 Q1009 NOSIG RMK QFE739/0986 36090060
TAF:UHBB 240740Z 2409/2509 16003MPS 2100 FU BKN007 SCT020CB OVC100
TEMPO 2409/2424 25003MPS 1100 SHSN FU BKN004 BKN015CB OVC100

Related Locations
Nearby:
Farthest:PSY: 12195 mi / 19626 km
Stanley (Port Stanley) [Port Stanley], FK

Find:

   beyond  
but within

Other Information
Maps:
NOTAMs:
Links:
Sources:

  
flag of Russian Federation (Russia)   

Sectional Chart

Flight Planning
at skyvector.com

Satellite Image

Google Maps Satellite View

 

Copyright © 2004-2014 Karl L. Swartz. All rights reserved.
The Great Circle Mapper name and logo are trademarks of the Great Circle Mapper.
All other trademarks mentioned herein belong to their respective owners.
Please see credits for attibutions and further copyright information.

  Follow gcmap on Facebook Follow gcmap on Twitter

hCard Microformat

Geo Microformat